FW8987 Weather Reports


time (UTC)temp
C
wind
direction
speed
KPH
gust
KPH
rain 1hr
cm
rain 24hr
cm
rain mn
cm
humidity
%
barometer
mb
20260504232017 1 233 3.2 9.7 0.51 0.89 0.71 98 1003.1
20260504231032 1 255 3.2 9.7 0.56 0.86 0.69 98 1003.0
20260504230028 2 246 3.2 12.9 0.58 0.76 0.58 97 1002.8
20260504225023 2 226 3.2 4.8 0.53 0.66 0.48 97 1002.7
20260504224019 2 217 1.6 6.4 0.48 0.58 0.41 97 1002.5
20260504223114 3 223 3.2 9.7 0.38 0.46 0.28 96 1002.5
20260504222029 3 265 3.2 12.9 0.36 0.38 0.20 96 1002.6
20260504221025 4 230 3.2 12.9 0.28 0.30 0.13 95 1002.3
20260504220020 4 224 3.2 6.4 0.15 0.18 0.18 95 1002.1
20260504215035 5 174 3.2 11.3 0.10 0.13 0.13 94 1002.0
20260504214031 5 207 1.6 3.2 0.08 0.10 0.10 93 1002.0
20260504213025 6 241 3.2 11.3 0.05 0.08 0.08 90 1001.9
20260504212020 6 242 1.6 6.4 0.00 0.03 0.03 89 1001.8
20260504211016 6 223 1.6 3.2 0.00 0.03 0.03 90 1001.7
20260504210051 6 170 0.0 1.6 0.00 0.03 0.03 91 1001.4
20260504205047 6 163 1.6 6.4 0.00 0.03 0.03 88 1001.5
20260504204022 6 227 3.2 6.4 0.00 0.03 0.03 88 1001.7
20260504203018 6 64 3.2 6.4 0.00 0.03 0.03 88 1001.2
20260504202034 6 24 3.2 6.4 0.00 0.03 0.03 88 1001.3
20260504201029 6 164 3.2 4.8 0.00 0.03 0.03 87 1001.5
20260504200024 6 0.0 0.0 0.00 0.03 0.03 87 1001.7
20260504195020 6 154 1.6 3.2 0.00 0.03 0.03 86 1001.6
20260504194015 6 170 1.6 4.8 0.00 0.03 0.03 85 1001.7
20260504193031 7 138 3.2 4.8 0.00 0.03 0.03 84 1001.8
20260504192025 7 116 1.6 4.8 0.00 0.03 0.03 84 1002.0
20260504191022 7 162 1.6 3.2 0.00 0.03 0.03 82 1001.9
20260504190016 7 116 3.2 6.4 0.00 0.03 0.03 81 1002.0
20260504185032 7 150 1.6 6.4 0.00 0.03 0.03 81 1001.6
20260504184027 8 147 1.6 4.8 0.00 0.03 0.03 80 1001.4
20260504183047 8 172 1.6 3.2 0.00 0.03 0.03 80 1001.1
20260504182017 8 128 3.2 9.7 0.00 0.03 0.03 79 1001.2
20260504181032 9 135 3.2 11.3 0.00 0.03 0.03 76 1000.9
20260504180028 10 148 1.6 4.8 0.00 0.03 0.03 72 1000.8
20260504175023 11 148 1.6 6.4 0.00 0.03 0.03 66 1000.6
20260504174018 12 82 3.2 6.4 0.00 0.03 0.03 58 1000.6
20260504173033 13 161 3.2 11.3 0.00 0.03 0.03 47 1000.6
20260504172029 14 248 6.4 12.9 0.00 0.03 0.03 32 1000.3
20260504171024 13 245 4.8 12.9 0.00 0.03 0.03 33 1000.3
20260504151025 13 246 6.4 11.3 0.00 0.03 0.03 56 1000.2
20260504140536 10 213 4.8 9.7 0.03 0.03 0.03 76 1000.6
20260504130526 13 263 11.3 17.7 0.00 0.00 0.00 58 1000.3
20260504110524 11 254 14.5 27.4 0.00 0.00 0.00 69 1001.0
20260504100521 11 257 12.9 20.9 0.00 0.00 0.00 71 1001.3
20260504081526 10 202 4.8 6.4 0.00 0.00 0.00 75 1002.3
20260504080520 11 220 6.4 14.5 0.00 0.00 0.00 72 1002.4
20260504050516 6 178 1.6 4.8 0.00 0.00 0.00 93 1004.1
20260504045552 6 196 1.6 3.2 0.00 0.00 0.00 94 1004.2
20260504044528 5 193 1.6 3.2 0.00 0.00 0.00 96 1004.3
20260504043522 5 200 1.6 3.2 0.00 0.00 0.00 96 1004.5
20260504042518 5 197 1.6 3.2 0.00 0.00 0.00 97 1004.6
20260504041534 5 192 0.0 1.6 0.00 0.00 0.00 97 1004.6
20260504040549 5 0.0 0.0 0.00 0.00 0.00 97 1004.7
20260504035524 5 0.0 0.0 0.00 0.00 0.00 97 1004.9
20260504034519 5 0.0 0.0 0.00 0.00 0.00 96 1005.1
20260504033534 5 186 0.0 1.6 0.00 0.00 0.00 96 1005.1
20260504032530 5 187 0.0 1.6 0.00 0.00 0.00 96 1005.3
20260504031525 5 192 0.0 1.6 0.00 0.00 0.00 96 1005.3
20260504030520 5 185 0.0 1.6 0.00 0.00 0.00 96 1005.4
20260504025516 5 192 0.0 1.6 0.00 0.00 0.00 96 1005.5
20260504024531 5 190 0.0 3.2 0.00 0.00 0.00 96 1005.6
20260504023526 5 186 0.0 4.8 0.00 0.00 0.00 96 1005.6
20260504022521 5 185 0.0 3.2 0.00 0.00 0.00 96 1005.7
20260504021538 4 193 0.0 1.6 0.00 0.00 0.00 96 1005.8
20260504020532 4 0.0 0.0 0.00 0.00 0.00 96 1006.0
20260504015548 4 186 0.0 1.6 0.00 0.00 0.00 96 1006.2
20260504014523 4 195 0.0 1.6 0.00 0.00 0.00 97 1006.3
20260504013518 4 0.0 0.0 0.00 0.00 0.00 97 1006.3
20260504012534 4 179 0.0 3.2 0.00 0.00 0.00 97 1006.4
20260504011529 3 0.0 0.0 0.00 0.00 0.00 96 1006.5
20260504010544 4 0.0 0.0 0.00 0.00 0.00 95 1006.6
20260504005519 4 0.0 0.0 0.00 0.00 0.00 95 1006.6
20260504004535 4 158 0.0 1.6 0.00 0.00 0.00 95 1006.7
20260504003550 5 0.0 0.0 0.00 0.00 0.00 95 1006.8
20260504002526 4 173 0.0 1.6 0.00 0.00 0.00 95 1006.8
20260504001521 4 0.0 0.0 0.00 0.03 0.00 96 1007.1
20260504000516 4 0.0 0.0 0.00 0.03 0.00 97 1007.3
20260503235651 3 0.0 0.0 0.00 0.03 0.00 98 1007.3
20260503234526 3 193 0.0 1.6 0.00 0.05 0.00 98 1007.4
20260503233522 3 0.0 0.0 0.00 0.08 0.00 98 1007.3
20260503232517 3 0.0 0.0 0.00 0.10 0.00 97 1007.5